Home   Weather   38°14'N, 93°21'W   Past weeks
Flag for USA

Past Weather in 38°14'N, 93°21'W, USA — Yesterday and Last 2 Weeks

Now
76 °F

Partly sunny.


Feels Like: 78 °F
Forecast: 77 / 65 °F
Wind: 9 mph from East

Location: Jefferson City Memorial Airport

Current Time: Aug 24, 2019 at 6:11:42 pm

Latest Report: Aug 24, 2019 at 4:53 pm


Visibility: 10 mi

Pressure: 30.01 "Hg

Humidity: 56%

Dew Point: 59 °F

Location of 38°14'N, 93°21'WLocation

Past Weather in 38°14'N, 93°21'W — Graph

°F

38°14'N, 93°21'W Temperature Yesterday

Maximum temperature yesterday: 83 °F (at 2:53 pm)
Minimum temperature yesterday: 69 °F (at 4:53 am)
Average temperature yesterday: 75 °F

High & Low Weather Summary for the Past Weeks

 TemperatureHumidityPressure
High91 °F (Aug 20, 1:53 pm)94% (Aug 22, 5:54 am)30.11 "Hg (Aug 22, 5:54 am)
Low65 °F (Aug 24, 6:53 am)47% (Aug 21, 3:53 pm)29.87 "Hg (Aug 20, 4:53 pm)
Average76 °F77%29.99 "Hg
* Reported Aug 20 1:53 pm — Aug 24 4:53 pm, 38°14'N, 93°21'W. Weather by CustomWeather, © 2019

Note: Actual official high and low records may vary slightly from our data, if they occured in-between our weather recording intervals... More about our weather records

Advertising

38°14'N, 93°21'W Weather History for the Previous 24 Hours

Scroll right to see more
 ConditionsComfort  
Time TempWeatherWind HumidityBarometerVisibility
4:53 pm
Sat, Aug 24
76 °FPartly sunny.9 mph56%30.01 "Hg10 mi
3:53 pm76 °FOvercast.10 mph54%30.02 "Hg10 mi
2:53 pm77 °FMostly cloudy.10 mph54%30.04 "Hg10 mi
1:53 pm77 °FMostly cloudy.10 mph52%30.06 "Hg10 mi
12:53 pm77 °FPartly sunny.15 mph52%30.05 "Hg10 mi
11:53 am76 °FPassing clouds.14 mph56%30.07 "Hg10 mi
10:53 am74 °FSunny.14 mph62%30.09 "Hg10 mi
9:53 am71 °FSunny.14 mph68%30.10 "Hg10 mi
8:53 am69 °FSunny.12 mph76%30.11 "Hg10 mi
7:53 am66 °FSunny.5 mph81%30.11 "Hg10 mi
6:53 am65 °FSunny.5 mph85%30.10 "Hg10 mi
5:53 am66 °FPassing clouds.7 mph81%30.10 "Hg10 mi
4:53 am67 °FPassing clouds.9 mph81%30.08 "Hg10 mi
3:53 am68 °FClear.5 mph82%30.08 "Hg10 mi
2:53 am69 °FClear.6 mph81%30.09 "Hg10 mi
1:53 am70 °FClear.6 mph79%30.08 "Hg10 mi
12:53 am71 °FClear.13 mph76%30.07 "Hg10 mi
11:53 pm
Fri, Aug 23
71 °FClear.9 mph78%30.06 "Hg10 mi
10:53 pm73 °FClear.10 mph74%30.05 "Hg10 mi
9:53 pm74 °FClear.9 mph69%30.06 "Hg10 mi
8:53 pm75 °FClear.7 mph69%30.04 "Hg10 mi
7:53 pm78 °FClear.9 mph64%30.01 "Hg10 mi
6:53 pm80 °FSunny.8 mph62%30.00 "Hg10 mi
Weather by CustomWeather, © 2019

See weather overview